Location: Breton
(53.1167°N, 114.4833°W)
Time: 16:18:35
(UTC+00:00)

ISS - Visible Passes

Search period start: 01 December 2021 00:00
Search period end: 11 December 2021 00:00
Orbit: 417 x 423 km, 51.6° (Epoch: 01 December)

Date Brightness Start Highest point End Pass type
(mag) Time Alt. Az. Time Alt. Az. Time Alt. Az.
01 Dec -3.5 00:38:27 10° W 00:41:50 70° S 00:44:34 15° E visible
01 Dec -2.1 02:15:14 10° W 02:17:34 34° WSW 02:17:34 34° WSW visible
02 Dec -3.3 01:28:02 10° W 01:31:24 55° SSW 01:32:21 38° SE visible
02 Dec -0.2 03:05:10 10° W 03:05:21 11° W 03:05:21 11° W visible
03 Dec -3.4 00:40:52 10° W 00:44:14 63° S 00:47:13 13° ESE visible
03 Dec -1.7 02:17:48 10° W 02:20:12 26° SW 02:20:12 26° SW visible
04 Dec -2.4 01:30:31 10° W 01:33:40 36° SSW 01:35:10 23° SSE visible
05 Dec -2.7 00:43:16 10° W 00:46:32 45° SSW 00:49:48 10° SE visible
05 Dec -1.0 02:20:47 10° WSW 02:22:47 15° SW 02:23:16 14° SSW visible
06 Dec -1.3 01:33:11 10° W 01:35:46 20° SSW 01:38:21 10° SSE visible
07 Dec -1.6 00:45:46 10° W 00:48:41 27° SSW 00:51:37 10° SSE visible
07 Dec -2.0 23:58:26 10° W 00:01:34 35° SSW 00:04:42 10° SE visible
08 Dec -0.3 01:37:21 10° SW 01:37:40 10° SW 01:37:59 10° SW visible
09 Dec -0.6 00:48:42 10° WSW 00:50:39 15° SW 00:52:36 10° S visible
10 Dec -0.7 00:01:02 10° W 00:03:36 20° SSW 00:06:09 10° SSE visible
